STARLINK-1939 (46774 NORAD) Tracking and Keplerian Element Data

This shows tracking and keplerian element data for the satellite.

Feedback or suggestion? Click here.




ElementValue
Catalog46774
NameSTARLINK-1939
Epoch Orbit180
Epoch Day20.91667824
Epoch Year2021
RAAN108.3144
Inclination53.0563
Eccentricity0.0001047
Argument of Perigee69.2259
Mean Anonmoly203.214
Mean Motion15.06418818
Decay Rate-0.00035745
L11 46774U 20074AM 21020.91667824 -.00035745 00000-0 -23917-2 0 9999
L22 46774 53.0563 108.3144 0001047 69.2259 203.2140 15.06418818 1801

Live tracking and technical data element details for STARLINK-1939 (NORAD 46774). STARLINK-1939 can be tracked NOW for your location showing map with azimuth and elevation plus other details from your city location.

Track the satellite on the map from your city or location and see movement details for azimuth, elevation, latitude, longitude, range, height, and movement on the map or in text.







IsCatalogInMostPopularTable: catalog: 46774, numindb: 32
Update: records affected: 1



GetName: 46774 STARLINK-1939

Hit Count: updated at: Fri, 22 Jan 2021 19:14:27 GMT